Weather History for Montreal, QC

Change the Weather History Date:

Saturday, November 17, 2012

  Actual Average Record
Temperature  
Mean Temperature 31 °F -  
Max Temperature 37 °F 39 °F 62 °F (2006)
Min Temperature 25 °F 28 °F 23 °F (1996)
Degree Days  
Heating Degree Days 34    
Moisture  
Dew Point 20 °F    
Average Humidity 64    
Maximum Humidity 86    
Minimum Humidity 32    
Precipitation  
Precipitation 0.00 in - - ()
Sea Level Pressure  
Sea Level Pressure 30.66 in    
Wind  
Wind Speed 5 mph ()    
Max Wind Speed 10 mph    
Max Gust Speed -    
Visibility 15.0 miles    
Events      
Averages and records for this station are not official NWS values.
T = Trace of Precipitation, MM = Missing Value Source: Averaged Metar Reports

Daily Weather History Graph

Daily Weather History Graph

Search for Another Location

Airport:

Trip Planner

Search our weather history database for the weather conditions in past years. The results will help you decide how hot, cold, wet, or windy it might be!

Date:

Astronomy

Nov. 17, 2012 Rise Set
Actual Time 6:57 AM EST 4:22 PM EST
Civil Twilight 6:24 AM EST 4:54 PM EST
Nautical Twilight 5:48 AM EST 5:30 PM EST
Astronomical Twilight 5:13 AM EST 6:05 PM EST
Moon 10:40 AM EST (11/17) 8:29 PM EST (11/17)
Length of Visible Light 10h 29m
Length of Day
9h 25m
Waxing Crescent, 20% of the Moon is Illuminated
Nov 17
Waxing Crescent
Nov 20
First Quarter
Nov 28
Full
Dec 6
Last Quarter
Dec 13
New

Hourly Weather History & Observations

Time (EST) Temp. Windchill Dew Point Humidity Pressure Visibility Wind Dir Wind Speed Gust Speed Precip Events Conditions
12:00 AM 30.2 °F 24.3 °F 26.6 °F 86% 30.53 in 15.0 mi NNW 5.8 mph - N/A   Partly Cloudy
1:00 AM 30 °F - 26 °F 78% 30.54 in 15 mi North 5.8 mph - -   Clear
1:00 AM 30.2 °F 24.3 °F 26.6 °F 86% 30.54 in 15.0 mi North 5.8 mph - N/A   Partly Cloudy
2:00 AM 28.4 °F 21.2 °F 24.8 °F 86% 30.57 in 15.0 mi NNW 6.9 mph - N/A   Partly Cloudy
3:00 AM 28.4 °F 21.2 °F 23.0 °F 80% 30.59 in 15.0 mi NNE 6.9 mph - N/A   Partly Cloudy
4:00 AM 26.6 °F 16.8 °F 21.2 °F 80% 30.61 in 15.0 mi NNE 10.4 mph - N/A   Partly Cloudy
5:00 AM 28.4 °F 20.4 °F 19.4 °F 69% 30.63 in 15.0 mi NNE 8.1 mph - N/A   Clear
6:00 AM 26.6 °F 18.2 °F 17.6 °F 69% 30.64 in 15.0 mi NE 8.1 mph - N/A   Partly Cloudy
7:00 AM 26 °F - 17 °F 58% 30.67 in 15 mi NNE 6.9 mph - -   Clear
7:00 AM 26.6 °F 18.2 °F 17.6 °F 69% 30.67 in 15.0 mi NNE 8.1 mph - N/A   Partly Cloudy
8:00 AM 26.6 °F 17.5 °F 17.6 °F 69% 30.69 in 15.0 mi NNE 9.2 mph - N/A   Partly Cloudy
9:00 AM 28.4 °F 19.7 °F 15.8 °F 59% 30.71 in 15.0 mi NNE 9.2 mph - N/A   Partly Cloudy
10:00 AM 30.2 °F 25.4 °F 15.8 °F 55% 30.71 in 30.0 mi NE 4.6 mph - N/A   Mostly Cloudy
11:00 AM 32.0 °F - 15.8 °F 51% 30.70 in 30.0 mi ENE 2.3 mph - N/A   Mostly Cloudy
12:00 PM 33.8 °F - 15.8 °F 48% 30.69 in 30.0 mi ESE 2.3 mph - N/A   Scattered Clouds
1:00 PM 36 °F - 17 °F 32% 30.68 in 28 mi NNE 1.2 mph - -   Clear
1:00 PM 35.6 °F - 17.6 °F 48% 30.68 in 30.0 mi ESE 2.3 mph - N/A   Scattered Clouds
2:00 PM 37.4 °F 34.9 °F 19.4 °F 48% 30.68 in 30.0 mi NNW 3.5 mph - N/A   Partly Cloudy
3:00 PM 35.6 °F 32.8 °F 19.4 °F 52% 30.68 in 30.0 mi SW 3.5 mph - N/A   Partly Cloudy
4:00 PM 35.6 °F - 19.4 °F 52% 30.69 in 30.0 mi West 2.3 mph - N/A   Partly Cloudy
5:00 PM 33.8 °F - 17.6 °F 52% 30.69 in 15.0 mi West 2.3 mph - N/A   Partly Cloudy
6:00 PM 28.4 °F - 17.6 °F 64% 30.70 in 15.0 mi SW 2.3 mph - N/A   Partly Cloudy
7:00 PM 28 °F - 19 °F 58% 30.71 in 15 mi ESE 2.3 mph - -  
7:00 PM 28.4 °F - 19.4 °F 69% 30.71 in 15.0 mi ESE 2.3 mph - N/A   Clear
8:00 PM 32.0 °F 27.5 °F 19.4 °F 60% 30.70 in 15.0 mi East 4.6 mph - N/A   Clear
9:00 PM 30.2 °F 25.4 °F 21.2 °F 69% 30.71 in 15.0 mi SE 4.6 mph - N/A   Clear
10:00 PM 30.2 °F 25.4 °F 21.2 °F 69% 30.71 in 15.0 mi ESE 4.6 mph - N/A   Clear
11:00 PM 30.2 °F 24.3 °F 19.4 °F 64% 30.72 in 15.0 mi East 5.8 mph - N/A   Clear